Tracking 19795 objects as of 17-Jul-2019
HD Live streaming from Space Station
objects crossing your sky now

NOAA 16 DEB

Track NOAA 16 DEB now!
10-day predictions


NORAD ID: 41366
Int'l Code: 2000-055JK
Perigee: 850.2 km
Apogee: 917.3 km
Inclination: 99.0 °
Period: 102.5 minutes
Semi major axis: 7254 km
RCS: Unknown
Launch date: September 21, 2000
Source: United States (US)
Launch site: AIR FORCE WESTERN TEST RANGE (AFWTR)

Note: This is SATELLITE DEBRIS
aabbcc
Your satellite tracking list
Your tracking list is empty




NASA's NSSDC Master Catalog

Two Line Element Set (TLE):
1 41366U 00055JK  19197.43414082  .00000720  00000-0  47040-3 0  9990
2 41366  98.9789 268.1277 0046278 211.2646 148.5767 14.04976370176401
Source of the keplerian elements: AFSPC